Voltar ao catálogo

NOAA 16 DEB

AtivoSSO
NORAD 41245·DEBRIS·🇺🇸 United States

Lançado Sep 21, 2000 de Vandenberg Space Force Base

Loading…

Próximas Passagens (próximas 24 horas)

TLE

AtualizadoSource: Space-Track

Época: Sep 12, 2026, 06:33 UTC

1 41245U 00055EV  26255.27331516  .00001266  00000-0  61015-3 0  9995
2 41245  98.5170 273.9810 0014347 190.0669 170.0223 14.20380594550975

Acompanhe NOAA 16 DEB em tempo real com AllMySat

Download on the App Store